Location: Grand Rapids
(42.9630°N, 85.6680°W)
Time: 02:02:37
(UTC-04:00)

A-11 Canister half - Pass Details

Date: 03 June 2024
Orbit: 1524 x 1684 km, 47.3° (Epoch: 21 June)

Event Time Altitude Azimuth Distance (km) Brightness Sun altitude
Rises 20:19:35 0° 246° (WSW) 4,667 12.2 8.5°
Reaches altitude 10° 20:22:36 10° 247° (WSW) 3,685 11.8 8.0°
Maximum altitude 20:31:55 88° 337° (NNW) 1,540 9.2 6.4°
Drops below altitude 10° 20:41:26 10° 68° (ENE) 3,757 10.7 4.8°
Sets 20:44:33 0° 69° (ENE) 4,762 11.2 4.3°
